Change the Weather History Date:

Thursday, March 20, 2014

  Actual Average Record
Temperature  
Mean Temperature 40 °F -  
Max Temperature 47 °F 40 °F 77 °F (2012)
Min Temperature 34 °F 25 °F 3 °F (1993)
Degree Days  
Heating Degree Days 24    
Moisture  
Dew Point 35 °F    
Average Humidity 87    
Maximum Humidity 100    
Minimum Humidity 52    
Precipitation  
Precipitation 0.61 in - - ()
Sea Level Pressure  
Sea Level Pressure 29.71 in    
Wind  
Wind Speed 8 mph (NW)    
Max Wind Speed 23 mph    
Max Gust Speed 31 mph    
Visibility 6 miles    
Events Fog , Rain , Snow    
Averages and records for this station are not official NWS values.
T = Trace of Precipitation, MM = Missing Value Source: NWS Daily Summary

Daily Weather History Graph

Daily Weather History Graph

Search for Another Location

Airport or City:

Trip Planner

Search our weather history database for the weather conditions in past years. The results will help you decide how hot, cold, wet, or windy it might be!

Date:

Astronomy

Mar. 20, 2014 Rise Set
Actual Time 6:46 AM EDT 6:55 PM EDT
Civil Twilight 6:18 AM EDT 7:23 PM EDT
Nautical Twilight 5:45 AM EDT 7:57 PM EDT
Astronomical Twilight 5:11 AM EDT 8:31 PM EDT
Moon 11:18 PM EDT (3/20) 8:44 AM EDT (3/20)
Length of Visible Light 13h 05m
Length of Day
12h 08m
Waning Gibbous, 84% of the Moon is Illuminated
Mar 20
Waning Gibbous
Mar 23
Last Quarter
Mar 30
New
Apr 7
First Quarter
Apr 15
Full

Hourly Weather History & Observations

Time (EDT) Temp. Windchill Dew Point Humidity Pressure Visibility Wind Dir Wind Speed Gust Speed Precip Events Conditions
12:43 AM 35.6 °F 30.7 °F 32.0 °F 87% 30.00 in 10.0 mi East 5.8 mph - N/A Snow Light Snow
12:58 AM 36.0 °F 30.3 °F 33.3 °F 90% 30.00 in 7.0 mi East 6.9 mph - 0.00 in Snow Light Snow
1:20 AM 35.6 °F 29.9 °F 35.6 °F 100% 29.98 in 4.0 mi ENE 6.9 mph - N/A Rain , Snow Light Snow
1:58 AM 34.7 °F 28.8 °F 34.5 °F 99% 29.96 in 3.0 mi East 6.9 mph - 0.08 in Rain , Snow Light Snow
2:18 AM 35.6 °F 29.9 °F 35.6 °F 100% 29.94 in 3.0 mi ENE 6.9 mph - N/A Rain Rain
2:44 AM 35.6 °F 29.2 °F 35.6 °F 100% 29.91 in 2.0 mi ENE 8.1 mph - N/A Rain Rain
2:58 AM 35.6 °F 29.2 °F 35.6 °F 100% 29.90 in 1.5 mi ENE 8.1 mph - 0.14 in Rain Light Rain
3:58 AM 36.9 °F 30.1 °F 36.9 °F 100% 29.83 in 1.5 mi East 9.2 mph - 0.07 in Rain Light Rain
4:43 AM 37.4 °F 29.3 °F 37.4 °F 100% 29.76 in 1.2 mi ENE 12.7 mph - N/A Rain Light Rain
4:58 AM 37.6 °F 29.1 °F 37.6 °F 100% 29.75 in 1.0 mi East 13.8 mph - 0.14 in Rain Light Rain
5:58 AM 38.1 °F 32.3 °F 38.1 °F 100% 29.73 in 1.2 mi ENE 8.1 mph - 0.11 in Rain Light Rain
6:28 AM 39.2 °F 34.2 °F 39.2 °F 100% 29.69 in 1.0 mi NE 6.9 mph - N/A Rain Light Rain
6:43 AM 39.2 °F 37.0 °F 39.2 °F 100% 29.69 in 1.2 mi Variable 3.5 mph - N/A Rain Light Rain
6:50 AM 39.2 °F 35.9 °F 39.2 °F 100% 29.68 in 0.8 mi NNE 4.6 mph - N/A Rain Light Rain
6:58 AM 38.3 °F - 38.3 °F 100% 29.70 in 1.2 mi North 2.3 mph - 0.05 in Rain Light Rain
7:43 AM 37.4 °F 32.8 °F 37.4 °F 100% 29.65 in 0.5 mi NNW 5.8 mph - N/A Fog Light Drizzle
7:58 AM 37.2 °F 32.6 °F 37.2 °F 100% 29.65 in 0.5 mi NW 5.8 mph - 0.02 in Fog Drizzle
8:13 AM 35.6 °F 29.2 °F 35.6 °F 100% 29.63 in 0.9 mi NW 8.1 mph - N/A   Light Drizzle
8:58 AM 36.1 °F 29.3 °F 36.1 °F 100% 29.62 in 1.2 mi NW 9.2 mph - N/A   Overcast
9:58 AM 36.9 °F 30.7 °F 36.9 °F 100% 29.62 in 2.0 mi NW 8.1 mph - N/A   Overcast
10:28 AM 37.4 °F 32.1 °F 37.4 °F 100% 29.60 in 3.0 mi NW 6.9 mph - N/A   Overcast
10:58 AM 38.5 °F 32.1 °F 38.5 °F 100% 29.62 in 4.0 mi NW 9.2 mph - N/A   Overcast
11:34 AM 41.0 °F 35.8 °F 41.0 °F 100% 29.60 in 10.0 mi WNW 8.1 mph - N/A   Overcast
11:48 AM 41.0 °F 36.4 °F 41.0 °F 100% 29.59 in 10.0 mi WNW 6.9 mph - N/A   Overcast
11:58 AM 41.9 °F 35.9 °F 41.7 °F 99% 29.60 in 10.0 mi WNW 10.4 mph - N/A   Overcast
12:28 PM 44.6 °F 38.4 °F 42.8 °F 93% 29.59 in 10.0 mi West 12.7 mph - N/A   Mostly Cloudy
12:42 PM 44.6 °F 38.8 °F 42.8 °F 93% 29.58 in 10.0 mi West 11.5 mph - N/A   Mostly Cloudy
12:58 PM 44.4 °F 38.6 °F 42.1 °F 91% 29.60 in 10.0 mi West 11.5 mph - N/A   Overcast
1:58 PM 47.1 °F - 38.8 °F 73% 29.57 in 10.0 mi West 15.0 mph 20.7 mph N/A   Scattered Clouds
2:58 PM 46.9 °F - 36.3 °F 67% 29.58 in 10.0 mi West 12.7 mph 19.6 mph N/A   Overcast
3:58 PM 45.1 °F 36.6 °F 29.8 °F 55% 29.60 in 10.0 mi West 23.0 mph 31.1 mph N/A   Mostly Cloudy
4:58 PM 45.1 °F 40.3 °F 28.9 °F 53% 29.62 in 10.0 mi WNW 9.2 mph 20.7 mph N/A   Mostly Cloudy
5:58 PM 44.2 °F 38.8 °F 28.0 °F 53% 29.62 in 10.0 mi West 10.4 mph - N/A   Partly Cloudy
6:58 PM 43.0 °F 36.4 °F 26.4 °F 52% 29.65 in 10.0 mi West 12.7 mph - N/A   Mostly Cloudy
7:58 PM 40.6 °F 33.8 °F 25.9 °F 56% 29.68 in 10.0 mi West 11.5 mph - N/A   Partly Cloudy
8:58 PM 39.6 °F 33.0 °F 25.7 °F 58% 29.68 in 10.0 mi WSW 10.4 mph - N/A   Partly Cloudy
9:58 PM 39.6 °F 31.3 °F 24.4 °F 55% 29.68 in 10.0 mi West 15.0 mph 25.3 mph N/A   Partly Cloudy
10:58 PM 38.5 °F 30.7 °F 24.6 °F 58% 29.70 in 10.0 mi WSW 12.7 mph - N/A   Partly Cloudy
11:58 PM 37.6 °F 30.0 °F 24.3 °F 59% 29.70 in 10.0 mi West 11.5 mph - N/A   Mostly Cloudy